Weather History for North Padre Island, TX

Change the Weather History Date:

Thursday, May 17, 2012

  Actual Average Record
Temperature  
Mean Temperature 78 °F -  
Max Temperature 82 °F - - ()
Min Temperature 75 °F - - ()
Cooling Degree Days 14    
Growing Degree Days 28 (Base 50)    
Moisture  
Dew Point 65 °F    
Average Humidity 64    
Maximum Humidity 74    
Minimum Humidity 54    
Precipitation  
Precipitation 0.00 in - - ()
Sea Level Pressure  
Sea Level Pressure 29.98 in    
Wind  
Wind Speed 5 mph (NE)    
Max Wind Speed 13 mph    
Max Gust Speed -    
Visibility 10 miles    
Events      
T = Trace of Precipitation, MM = Missing Value Source: NWS Daily Summary

Daily Weather History Graph

Daily Weather History Graph

Search for Another Location

Airport:

Trip Planner

Search our weather history database for the weather conditions in past years. The results will help you decide how hot, cold, wet, or windy it might be!

Date:

Astronomy

May. 17, 2012 Rise Set
Actual Time 6:38 AM CDT 8:09 PM CDT
Civil Twilight 6:13 AM CDT 8:35 PM CDT
Nautical Twilight 5:43 AM CDT 9:05 PM CDT
Astronomical Twilight 5:11 AM CDT 9:37 PM CDT
Moon 4:23 AM CDT 5:34 PM CDT
Length of Visible Light 14h 21m
Length of Day
13h 30m
Waning Crescent, 9% of the Moon is Illuminated
May 17
Waning Crescent
May 20
New
May 28
First Quarter
Jun 4
Full
Jun 11
Last Quarter

Hourly Weather History & Observations

Time (CDT) Temp. Heat Index Dew Point Humidity Pressure Visibility Wind Dir Wind Speed Gust Speed Precip Events Conditions
12:15 AM 77.0 °F - 62.6 °F 61% 30.01 in 10.0 mi NE 8.1 mph - N/A   Clear
12:35 AM 77.0 °F - 62.6 °F 61% 30.01 in 10.0 mi ENE 6.9 mph - N/A   Clear
12:55 AM 77.0 °F - 62.6 °F 61% 30.00 in 10.0 mi ENE 5.8 mph - N/A   Clear
1:15 AM 77.0 °F - 60.8 °F 57% 30.00 in 10.0 mi ENE 6.9 mph - N/A   Clear
1:35 AM 77.0 °F - 62.6 °F 61% 30.00 in 10.0 mi ENE 6.9 mph - N/A   Clear
1:55 AM 77.0 °F - 62.6 °F 61% 30.00 in 10.0 mi East 5.8 mph - N/A   Clear
2:15 AM 77.0 °F - 62.6 °F 61% 29.99 in 10.0 mi ESE 4.6 mph - N/A   Clear
2:35 AM 77.0 °F - 62.6 °F 61% 29.98 in 10.0 mi East 4.6 mph - N/A   Clear
2:55 AM 77.0 °F - 62.6 °F 61% 29.98 in 10.0 mi East 4.6 mph - N/A   Clear
3:15 AM 77.0 °F - 62.6 °F 61% 29.98 in 10.0 mi Calm Calm - N/A   Clear
3:55 AM 77.0 °F - 62.6 °F 61% 29.98 in 10.0 mi Calm Calm - N/A   Clear
4:15 AM 77.0 °F - 62.6 °F 61% 29.98 in 10.0 mi Calm Calm - N/A   Clear
4:35 AM 77.0 °F - 62.6 °F 61% 29.97 in 10.0 mi Calm Calm - N/A   Clear
4:55 AM 75.2 °F - 62.6 °F 65% 29.98 in 10.0 mi Calm Calm - N/A   Clear
5:15 AM 75.2 °F - 62.6 °F 65% 29.98 in 10.0 mi Calm Calm - N/A   Clear
5:35 AM 75.2 °F - 62.6 °F 65% 29.98 in 10.0 mi Calm Calm - N/A   Clear
5:55 AM 75.2 °F - 62.6 °F 65% 29.98 in 10.0 mi Calm Calm - N/A   Clear
6:15 AM 75.2 °F - 62.6 °F 65% 29.98 in 10.0 mi Calm Calm - N/A   Clear
6:35 AM 75.2 °F - 62.6 °F 65% 29.98 in 10.0 mi Calm Calm - N/A   Clear
6:55 AM 75.2 °F - 62.6 °F 65% 29.99 in 10.0 mi Calm Calm - N/A   Clear
7:15 AM 77.0 °F - 64.4 °F 65% 29.99 in 10.0 mi Calm Calm - N/A   Clear
7:35 AM 77.0 °F - 62.6 °F 61% 30.00 in 10.0 mi Calm Calm - N/A   Clear
7:55 AM 78.8 °F - 64.4 °F 61% 30.00 in 10.0 mi Calm Calm - N/A   Clear
8:15 AM 78.8 °F - 64.4 °F 61% 30.01 in 10.0 mi Calm Calm - N/A   Clear
8:35 AM 78.8 °F - 62.6 °F 57% 30.02 in 10.0 mi NW 3.5 mph - N/A   Clear
8:55 AM 80.6 °F 82.3 °F 64.4 °F 58% 30.02 in 10.0 mi Calm Calm - N/A   Clear
9:15 AM 80.6 °F 81.8 °F 62.6 °F 54% 30.02 in 10.0 mi Calm Calm - N/A   Clear
9:35 AM 78.8 °F - 62.6 °F 57% 30.02 in 10.0 mi Calm Calm - N/A   Clear
9:55 AM 80.6 °F 81.8 °F 62.6 °F 54% 30.03 in 10.0 mi Calm Calm - N/A   Clear
10:15 AM 80.6 °F 81.8 °F 62.6 °F 54% 30.03 in 10.0 mi Calm Calm - N/A   Clear
10:35 AM 80.6 °F 81.8 °F 62.6 °F 54% 30.03 in 10.0 mi Calm Calm - N/A   Clear
10:55 AM 80.6 °F 83.2 °F 68.0 °F 65% 30.03 in 10.0 mi NNW 4.6 mph - N/A   Scattered Clouds
11:15 AM 82.4 °F 85.4 °F 68.0 °F 62% 30.02 in 10.0 mi NW 6.9 mph - N/A   Scattered Clouds
11:35 AM 80.6 °F 83.2 °F 68.0 °F 65% 30.02 in 10.0 mi NNW 4.6 mph - N/A   Partly Cloudy
11:55 AM 78.8 °F - 66.2 °F 65% 30.02 in 10.0 mi Calm Calm - N/A   Partly Cloudy
12:15 PM 78.8 °F - 66.2 °F 65% 30.02 in 10.0 mi Calm Calm - N/A   Clear
12:35 PM 78.8 °F - 64.4 °F 61% 30.01 in 10.0 mi Calm Calm - N/A   Clear
12:55 PM 78.8 °F - 64.4 °F 61% 30.02 in 10.0 mi Calm Calm - N/A   Partly Cloudy
1:15 PM 78.8 °F - 64.4 °F 61% 30.01 in 10.0 mi Calm Calm - N/A   Clear
1:35 PM 78.8 °F - 66.2 °F 65% 30.01 in - Calm Calm - N/A   Clear
1:55 PM 78.8 °F - 64.4 °F 61% 30.00 in 10.0 mi Calm Calm - N/A   Clear
2:15 PM 78.8 °F - 64.4 °F 61% 30.00 in 10.0 mi Variable 3.5 mph - N/A   Clear
2:35 PM 78.8 °F - 64.4 °F 61% 29.99 in 10.0 mi Variable 3.5 mph - N/A   Clear
2:55 PM 78.8 °F - 64.4 °F 61% 29.98 in 10.0 mi NNE 3.5 mph - N/A   Clear
3:15 PM 78.8 °F - 66.2 °F 65% 29.97 in 10.0 mi Variable 4.6 mph - N/A   Clear
3:35 PM 77.0 °F - 66.2 °F 69% 29.97 in 10.0 mi NNE 6.9 mph - N/A   Clear
3:55 PM 77.0 °F - 66.2 °F 69% 29.96 in 10.0 mi NNE 6.9 mph - N/A   Clear
4:15 PM 77.0 °F - 66.2 °F 69% 29.96 in 10.0 mi NE 6.9 mph - N/A   Clear
4:35 PM 77.0 °F - 66.2 °F 69% 29.95 in 10.0 mi NE 8.1 mph - N/A   Clear
4:55 PM 77.0 °F - 66.2 °F 69% 29.95 in 10.0 mi NE 8.1 mph - N/A   Partly Cloudy
5:15 PM 78.8 °F - 66.2 °F 65% 29.95 in 10.0 mi NE 9.2 mph - N/A   Partly Cloudy
5:35 PM 78.8 °F - 64.4 °F 61% 29.94 in 10.0 mi NE 6.9 mph - N/A   Clear
5:55 PM 78.8 °F - 64.4 °F 61% 29.94 in 10.0 mi NE 10.4 mph - N/A   Clear
6:15 PM 78.8 °F - 64.4 °F 61% 29.93 in 10.0 mi NE 8.1 mph - N/A   Clear
6:35 PM 77.0 °F - 64.4 °F 65% 29.93 in 10.0 mi NE 6.9 mph - N/A   Clear
6:55 PM 77.0 °F - 64.4 °F 65% 29.93 in 10.0 mi NE 8.1 mph - N/A   Clear
7:15 PM 77.0 °F - 64.4 °F 65% 29.93 in 10.0 mi NE 9.2 mph - N/A   Clear
7:35 PM 77.0 °F - 64.4 °F 65% 29.93 in 10.0 mi NE 10.4 mph - N/A   Clear
7:55 PM 77.0 °F - 64.4 °F 65% 29.93 in 10.0 mi NE 9.2 mph - N/A   Clear
8:15 PM 77.0 °F - 64.4 °F 65% 29.93 in 10.0 mi NE 10.4 mph - N/A   Clear
8:35 PM 77.0 °F - 66.2 °F 69% 29.93 in 10.0 mi NE 10.4 mph - N/A   Clear
8:55 PM 77.0 °F - 66.2 °F 69% 29.93 in 10.0 mi NE 11.5 mph - N/A   Clear
9:15 PM 77.0 °F - 66.2 °F 69% 29.93 in - ENE 9.2 mph - N/A   Clear
9:35 PM 77.0 °F - 66.2 °F 69% 29.93 in 10.0 mi ENE 11.5 mph - N/A   Clear
9:55 PM 77.0 °F - 66.2 °F 69% 29.94 in 10.0 mi ENE 10.4 mph - N/A   Clear
10:15 PM 77.0 °F - 68.0 °F 74% 29.94 in 10.0 mi NE 12.7 mph - N/A   Clear
10:35 PM 77.0 °F - 68.0 °F 74% 29.95 in 10.0 mi ENE 10.4 mph - N/A   Clear
10:55 PM 77.0 °F - 68.0 °F 74% 29.95 in 10.0 mi ENE 10.4 mph - N/A   Clear
11:15 PM 77.0 °F - 68.0 °F 74% 29.96 in 10.0 mi ENE 12.7 mph - N/A   Clear
11:35 PM 77.0 °F - 68.0 °F 74% 29.95 in 10.0 mi East 11.5 mph - N/A   Partly Cloudy
11:55 PM 77.0 °F - 68.0 °F 74% 29.95 in 10.0 mi East 9.2 mph - N/A   Scattered Clouds